Probability
0 0 0 0 0 0 0 0 0 0 0 0 0 0 0 0 0 0 0 0 0 0 0 0 0 0 0 0 0 1 2 3 2 1 0 1 0 0 0 0 0 0 0 0
0 0 0 0 0 0 0 0 0 0 0 0 0 0 0 0 0 0 0 0 0 0 0 0 0 0 0 0 0 0 1 2 2 0 1 1 1 0 0 0 0 0 0 0
0 0 0 0 0 0 0 0 0 0 0 0 0 0 0 0 0 0 0 0 0 0 0 0 0 0 0 0 0 0 1 2 2 1 1 2 2 1 1 1 0 0 0 0
0 0 0 0 0 0 0 0 0 0 0 0 0 0 0 0 0 0 0 0 0 0 0 0 0 0 0 0 0 0 1 2 3 2 1 1 2 2 2 2 1 1 1 0
0 0 0 0 0 0 0 0 0 0 0 0 0 0 0 0 0 0 0 0 0 0 0 0 0 0 0 0 0 0 0 1 3 3 2 1 1 1 1 2 3 2 2 1
0 0 0 0 0 0 0 0 0 0 0 0 0 0 0 0 0 0 0 0 0 0 0 0 0 0 0 0 0 0 0 1 2 3 3 3 1 0 1 2 3 3 3 3
0 0 0 0 0 0 0 0 0 0 0 0 0 0 0 0 0 0 0 0 0 0 0 0 0 0 0 0 0 0 0 1 2 2 3 3 2 0 0 1 2 3 3 3
0 0 0 0 0 0 0 0 0 0 0 0 0 0 0 0 0 0 0 0 0 0 0 0 0 0 0 0 0 0 0 0 1 1 1 1 1 0 0 0 1 1 2 3
0 0 0 0 0 0 0 0 0 0 0 0 0 0 0 0 0 0 0 0 0 0 0 0 0 0 0 0 0 0 0 0 0 0 0 0 0 0 0 0 0 1 1 1
0 0 0 0 0 0 0 0 0 0 0 0 0 0 0 0 0 0 0 0 0 0 0 0 0 0 0 0 0 0 0 0 0 0 0 0 0 0 0 0 0 0 0 0
0 0 0 0 0 0 0 0 0 0 0 0 0 0 0 0 0 0 0 0 0 0 0 0 0 0 0 0 0 0 0 0 0 0 0 0 0 0 0 0 0 0 0 0
0 0 0 0 0 0 0 0 0 0 0 0 0 0 0 0 0 0 0 0 0 0 0 0 0 0 0 0 0 0 0 0 0 0 0 0 0 0 0 0 0 0 0 0
0 0 0 0 0 0 0 0 0 0 0 0 0 0 0 0 0 0 0 0 0 0 0 0 0 0 0 0 0 0 0 0 0 0 0 0 0 0 0 0 0 0 0 0
0 0 0 0 0 0 0 0 0 0 0 0 0 0 0 0 0 0 0 0 0 0 0 0 0 0 0 0 0 0 0 0 0 0 0 0 0 0 0 0 0 0 0 0
0 0 0 0 0 0 0 0 0 0 0 0 0 0 0 0 0 0 0 0 0 0 0 0 0 0 0 0 0 0 0 0 0 0 0 0 0 0 0 0 0 0 0 0
0 0 0 0 0 0 0 0 0 0 0 0 0 0 0 0 0 0 0 0 0 0 0 0 0 0 0 0 0 0 0 0 0 0 0 0 0 0 0 0 0 0 0 0
0 0 0 0 0 0 0 0 0 0 0 0 0 0 0 0 0 0 0 0 0 0 0 0 0 0 0 0 0 0 0 0 0 0 0 0 0 0 0 0 0 0 0 0
0 0 0 0 0 0 0 0 0 0 0 0 0 0 0 0 0 0 0 0 0 0 0 0 0 0 0 0 0 0 0 0 0 0 0 0 0 0 0 0 0 0 0 0
0 0 0 0 0 0 0 0 0 0 0 0 0 0 0 0 0 0 0 0 0 0 0 0 0 0 0 0 0 0 0 0 0 0 0 0 0 0 0 0 0 0 0 0
0 0 0 0 0 0 0 0 0 0 0 0 0 0 0 0 0 0 0 0 0 0 0 0 0 0 0 0 0 0 0 0 0 0 0 0 0 0 0 0 0 0 0 0
0 0 0 0 0 0 0 0 0 0 0 0 0 0 0 0 0 0 0 0 0 0 0 0 0 0 0 0 0 0 0 0 0 0 0 0 0 0 0 0 0 0 0 0
0 0 0 0 0 0 0 0 0 0 0 0 0 0 0 0 0 0 0 0 0 0 0 0 0 0 0 0 0 0 0 0 0 0 0 0 0 0 0 0 0 0 0 0
0 0 0 0 0 0 0 0 0 0 0 0 0 0 0 0 0 0 0 0 0 0 0 0 0 0 0 0 0 0 0 0 0 0 0 0 0 0 0 0 0 0 0 0
0 0 0 0 0 0 0 0 0 0 0 0 0 0 0 0 0 0 0 0 0 0 0 0 0 0 0 0 0 0 0 0 0 0 0 0 0 0 0 0 0 0 0 0
0 0 0 0 0 0 0 0 0 0 0 0 0 0 0 0 0 0 0 0 0 0 0 0 0 0 0 0 0 0 0 0 0 0 0 0 0 0 0 0 0 0 0 0
0 0 0 0 0 0 0 0 0 0 0 0 0 0 0 0 0 0 0 0 0 0 0 0 0 0 0 0 0 0 0 0 0 0 0 0 0 0 0 0 0 0 0 0
Wind_Speed
5 5 5 4 3 3 4 4 2 2 3 2 1 1 3 3 3 3 4 4 5 6 7 8 9 8 8 8 8 7 5 5 3 2 1 2 2 1 1 1 2 2 3 3
5 6 3 2 3 5 5 4 2 2 3 2 1 2 2 2 3 3 3 4 5 7 8 8 9 9 9 9 8 7 6 5 4 3 2 2 2 2 2 1 2 2 3 3
7 4 1 3 5 4 3 1 1 1 2 2 1 1 0 1 3 3 4 5 6 6 7 8 8 9 9 9 9 7 7 5 5 4 2 1 1 1 1 2 2 3 3 3
7 3 2 5 4 2 1 2 1 1 1 1 2 2 1 1 2 3 4 4 5 6 6 7 8 8 8 8 8 8 7 6 5 4 2 1 1 2 3 2 2 3 3 3
5 3 3 3 3 2 2 1 1 1 1 1 0 3 1 0 3 4 4 4 5 5 6 6 7 7 7 7 7 7 8 7 6 4 2 2 2 2 2 2 2 3 3 3
4 2 3 2 1 1 2 3 3 1 1 1 0 3 2 1 3 3 3 3 4 4 5 6 6 6 7 7 7 7 7 7 7 6 4 3 3 3 3 3 3 3 2 3
3 3 3 1 2 2 1 2 1 2 1 1 1 3 3 1 2 3 3 3 3 3 5 6 6 7 7 8 8 8 8 7 7 6 6 5 4 4 3 3 3 4 3 3
4 3 2 3 1 1 1 1 0 1 1 0 1 4 1 2 3 3 2 2 3 3 4 5 6 6 6 7 8 8 8 7 7 7 6 5 5 3 3 3 3 3 3 4
3 3 2 2 2 0 2 1 2 2 2 2 3 3 3 1 2 2 2 3 3 4 5 5 5 6 6 7 7 7 7 7 7 7 6 5 5 4 4 4 4 3 3 4
3 4 1 2 1 4 2 3 2 2 2 2 3 3 3 2 3 3 3 4 4 4 5 5 5 5 6 6 7 7 7 7 7 7 6 5 5 4 4 4 5 5 5 5
2 4 2 1 1 1 2 2 1 2 1 2 3 2 0 3 3 4 4 4 4 5 5 5 5 5 5 6 6 6 6 7 7 7 6 6 6 4 4 4 5 5 5 5
2 3 2 1 1 2 2 2 3 2 2 2 3 3 1 2 3 4 5 5 4 4 4 4 5 5 5 6 6 6 6 7 7 7 6 6 6 5 5 5 5 5 5 5
4 4 4 2 2 2 3 3 3 1 2 4 4 4 2 2 3 4 5 5 5 4 5 4 4 5 5 6 6 6 6 6 7 6 6 6 6 6 5 5 5 5 5 5
4 3 3 4 2 4 4 5 6 5 5 6 9 8 6 5 5 5 5 5 5 5 5 5 5 5 5 6 6 6 7 7 7 6 6 6 6 6 6 5 5 5 5 5
3 3 2 1 1 2 5 7 10 11 9 9 8 10 11 9 7 7 6 5 6 6 6 6 6 5 6 6 6 6 7 6 6 6 6 6 6 6 6 5 5 5 5 5
2 4 2 1 1 2 6 10 12 13 11 13 12 13 11 8 7 7 7 6 7 7 7 6 6 6 6 6 6 6 6 6 6 5 6 6 6 6 6 6 6 5 5 5
5 6 4 2 2 2 9 12 15 11 11 11 13 11 5 6 8 8 7 7 7 7 7 6 6 5 5 5 5 6 6 6 5 5 5 6 6 6 6 6 6 6 5 5
7 6 3 1 1 9 5 2 9 12 12 13 12 10 8 8 7 7 7 7 7 7 6 5 4 4 4 4 5 5 5 5 5 5 6 6 6 6 6 6 6 6 5 4
5 7 5 3 4 9 7 6 8 10 10 13 15 13 10 5 6 7 6 6 7 6 5 4 4 4 4 4 4 4 4 4 5 5 6 6 5 5 5 5 6 5 4 4
3 4 5 5 6 9 4 5 5 4 8 8 12 12 8 3 5 4 2 3 4 4 4 3 3 3 3 3 3 3 4 4 5 6 6 5 5 5 5 5 5 4 4 4
7 5 7 7 8 11 5 6 8 7 6 4 9 9 8 9 7 2 1 2 3 3 3 2 2 3 3 3 2 3 4 4 5 5 5 5 4 4 4 4 4 4 3 3
13 11 11 8 9 13 9 12 13 8 1 4 6 7 8 8 6 4 4 4 3 3 3 2 2 3 2 2 2 3 4 5 4 4 4 4 4 4 3 3 4 3 3 3
13 12 10 14 12 3 12 11 8 3 4 5 6 6 7 7 7 7 5 5 4 4 3 2 3 3 3 2 2 4 4 4 3 3 3 3 3 3 3 3 3 3 3 3
8 5 6 8 12 8 10 10 8 8 8 6 5 6 7 8 7 6 6 5 4 4 4 3 3 3 4 3 3 4 4 3 2 3 3 3 3 3 3 2 2 2 2 2
10 11 8 10 8 5 10 14 14 10 7 6 6 6 7 8 8 7 6 6 5 4 3 3 4 4 5 4 4 3 3 2 3 3 3 3 3 3 3 2 2 3 3 3
12 14 14 13 10 10 9 10 12 11 10 10 8 7 7 8 9 8 7 6 5 4 4 3 4 5 5 4 4 3 3 2 3 3 3 3 2 2 2 2 3 3 4 5
Wind_Direction
39 69 67 44 33 84 122 131 110 40 6 13 68 316 343 0 14 14 11 12 9 6 7 9 6 5 4 5 3 357 351 341 329 306 279 251 247 246 246 256 268 262 261 255
100 68 39 53 96 108 115 117 93 74 36 20 46 332 344 10 13 1 2 12 6 3 6 8 7 7 4 0 358 355 353 346 333 313 287 270 260 250 247 256 266 275 275 269
95 73 10 93 87 97 76 98 131 50 28 91 298 192 120 39 24 22 19 13 9 5 2 3 4 4 3 359 355 351 347 339 334 326 310 307 277 269 274 280 277 279 275 273
78 42 77 86 59 26 84 29 113 153 189 113 326 259 165 314 334 349 354 359 358 358 359 359 359 0 359 354 353 352 349 345 341 330 320 320 300 287 284 284 280 277 266 266
87 49 65 69 29 13 79 67 118 134 133 156 206 256 199 5 293 311 331 346 351 352 354 352 352 351 352 353 353 352 353 353 350 337 310 288 294 294 296 300 299 297 286 275
81 51 26 23 11 98 131 128 112 125 202 223 229 248 253 206 276 306 319 332 340 345 347 346 348 351 352 354 354 352 353 355 356 349 337 316 306 307 314 319 310 303 298 295
88 67 31 357 108 110 141 175 164 176 203 233 90 251 268 13 317 288 292 309 326 337 340 344 347 350 348 349 349 349 351 351 353 351 349 342 329 318 315 310 307 312 309 305
141 133 31 8 7 167 162 275 257 237 242 249 208 247 258 11 332 309 300 309 325 334 336 337 340 342 341 341 344 346 347 346 349 352 349 344 338 331 328 323 314 311 311 312
145 125 41 14 4 37 141 123 24 97 78 261 238 259 263 251 318 326 324 318 316 323 326 328 332 337 336 337 339 339 342 343 344 345 345 341 339 336 330 327 321 315 322 325
112 128 46 341 137 52 21 126 157 173 201 250 263 252 252 234 262 280 297 299 305 314 319 322 326 331 332 332 334 338 341 339 339 341 343 335 332 335 333 332 335 330 328 326
97 122 107 121 177 166 125 136 131 127 282 249 264 254 199 239 246 260 280 296 304 308 311 316 322 327 330 334 337 337 338 340 340 338 336 336 331 334 337 337 337 331 328 324
121 116 128 170 25 332 253 200 184 198 201 232 263 270 97 260 276 278 286 294 296 299 308 317 324 330 333 335 336 337 338 340 338 335 335 335 335 338 338 336 337 333 331 330
143 133 126 147 182 198 222 206 202 171 157 197 224 249 112 295 296 292 288 291 294 300 312 319 325 328 330 330 332 334 336 336 336 335 336 336 338 338 338 337 336 336 333 332
134 148 200 209 161 164 205 205 196 190 203 216 233 257 269 278 285 291 290 284 287 297 305 309 312 316 321 324 326 329 332 335 335 336 336 336 336 335 331 332 333 333 332 330
149 168 202 291 337 217 231 222 209 216 222 228 243 251 265 272 275 279 283 284 289 294 298 299 301 306 315 321 323 325 327 332 333 335 337 333 333 334 331 329 329 330 332 330
133 144 138 266 279 274 258 239 224 228 233 241 257 264 265 274 275 272 274 273 277 284 290 295 299 302 308 314 317 320 323 327 328 330 332 333 334 334 332 329 328 328 331 334
151 141 157 218 337 314 255 226 210 212 216 218 234 247 261 264 265 266 267 264 266 277 284 289 290 291 300 308 313 316 318 324 329 328 329 331 331 330 328 327 328 329 333 339
149 139 143 147 140 238 240 163 206 219 232 225 241 253 255 263 276 269 257 255 267 273 276 280 283 289 301 308 312 315 321 326 329 331 328 326 327 324 324 329 334 336 337 337
166 148 145 169 232 269 274 213 190 206 247 226 232 246 256 279 291 267 239 244 255 261 266 269 274 281 293 303 309 313 322 326 328 325 326 327 325 325 329 333 333 333 335 337
134 143 151 175 219 242 230 162 162 170 260 219 213 231 239 213 258 269 219 232 246 256 264 268 274 283 290 302 310 310 316 321 318 317 319 323 326 325 326 325 325 327 330 332
165 175 194 201 232 258 231 152 154 194 241 185 200 218 211 209 236 273 213 233 239 251 261 266 271 280 290 306 306 298 305 306 309 315 318 323 325 322 318 321 322 326 331 333
177 178 191 186 217 245 169 161 195 216 150 177 196 206 210 226 241 243 241 239 242 252 260 260 263 278 294 301 280 280 288 302 314 315 314 319 321 318 316 318 322 325 323 322
202 195 187 198 217 232 172 197 211 197 206 207 206 213 215 229 237 237 241 243 243 249 259 256 253 270 285 287 269 269 286 305 308 305 305 309 317 316 314 312 313 318 317 315
217 198 198 232 246 232 217 229 232 228 233 233 226 220 216 230 234 233 236 240 242 247 251 252 247 259 272 277 271 273 290 299 288 286 295 303 307 312 318 312 308 306 304 303
193 178 202 238 252 254 238 226 229 229 232 236 235 227 225 227 233 231 235 238 240 245 245 238 242 253 264 273 274 280 286 280 275 280 285 292 293 298 308 307 300 298 291 289
189 186 193 220 207 204 223 212 209 214 222 223 226 232 228 222 229 231 234 236 237 240 239 238 244 252 262 267 269 274 271 254 251 265 274 276 280 285 289 295 303 299 290 303